Regional Weather Roundup
Issued by NWS Newport/Morehead, NC

Home | Current Version | Previous Version | Text Only | Print | Product List | Glossary On
Versions: 1 2 3 4 5 6 7 8 9 10 11 12 13 14 15 16 17 18 19 20 21 22 23 24 25 26 27 28 29 30 31 32 33 34 35 36 37 38 39 40 41 42 43 44 45 46 47 48 49 50
000
ASUS42 KMHX 061812
RWRMHX
WEATHER ROUNDUP FOR EASTERN NORTH CAROLINA
NATIONAL WEATHER SERVICE NEWPORT/MOREHEAD CITY NC
100 PM EST FRI MAR 06 2015

NOTE: "FAIR" INDICATES FEW OR NO CLOUDS BELOW 12,000 FEET
WITH NO SIGNIFICANT WEATHER AND/OR OBSTRUCTIONS TO VISIBILITY

NCZ015>017-031-032-045>047-102-103-061900-
NORTH COAST

CITY           SKY/WX    TMP DP  RH WIND       PRES   REMARKS
EDENTON        FAIR      33  19  57 N13G18    30.49F
ELIZABETH CITY FAIR      30  19  63 NE13      30.50F WCI  20
KITTY HAWK     CLOUDY    29  22  75 N13G23    30.45F WCI  19
MANTEO         CLOUDY    30  22  74 N21G28    30.46F WCI  17

$$

NCZ045>047-081-094-103-104-061900-
CENTRAL COAST

CITY           SKY/WX    TMP DP  RH WIND       PRES   REMARKS
FRISCO         CLOUDY    32  25  75 N16G30    30.41F
SWANQUARTER      N/A     34 N/A N/A NE8G22    30.41S

$$

NCZ095-097-098-100-101-061900-
SOUTHERN COAST

CITY           SKY/WX    TMP DP  RH WIND       PRES   REMARKS
BEAUFORT       CLOUDY    35  22  58 N17G24    30.42F
CEDAR ISLAND     N/A     32 N/A N/A N21G30    30.47S WCI  20
JACKSONVILLE   CLOUDY    40  22  48 N12       30.43F
PINEY ISLAND     N/A    N/A N/A N/A MISG      30.42F
WILMINGTON     CLOUDY    39  23  52 N10       30.43F


$$

NCZ011>013-027>030-043-044-078>080-089-090>093-098-061900-
COASTAL PLAIN

CITY           SKY/WX    TMP DP  RH WIND       PRES   REMARKS
AHOSKIE        FAIR      30  15  54 NW8G16    30.50F
CLINTON        FAIR      37  18  46 NE6       30.47F
ELIZABETHTOWN  FAIR      39  16  39 N6        30.45F
GOLDSBORO      FAIR      33  22  61 N8G18     30.45F
GREENVILLE     FAIR      34  18  51 N13       30.48F
HAVELOCK       CLOUDY    39  21  48 N15G24    30.44F
KENANSVILLE    FAIR      35  19  51 NE8       30.47F
KINSTON        FAIR      36  19  51 N12G18    30.48F
NEW BERN       FAIR      38  20  48 NE13      30.45F
RICHLANDS      FAIR      36  21  55 N9G17     30.45F
ROCKY MOUNT    FAIR      32  14  47 N7        30.49F
WASHINGTON     FAIR      33  21  62 N13       30.47F
WHITEVILLE     CLOUDY    40  15  37 N7G17     30.43F

$$

AMZ130-135-150-152-154-156-158-170-250-252-270-ANZ085-086-088-633-658-670-061900-
MARINE OBSERVATIONS

STATION/POSITION TIME  TEMP    WIND        PRES    WAVE   SWELL
                       AIR SEA DIR/SP/G            HT/PER HT/PER
                 (UTC) (F)     (DEG/KT/KT) (MB)    (FT/S) (FT/S)
CHESAPEAKE LIGHT 1700   22      10/ 18/ 22 1034.0
64 E VA BEACH    1750   36 51  360/ 23/ 27 1029.5    7/ 8   5/ 8
DUCK             1700   25 35   10/ 19/ 24 1031.7
2 E DUCK         1711      35                N/A     7/ 8   2/11
10 NE DUCK       1752      37                N/A     7/ 8   2/11
OREGON INLET     1700   31 38  350/ 16/ 24 1031.3
HATTERAS CG      1700   31 43   10/ 27/ 31 1030.5
CAPE LOOKOUT     1800           10/ 16/ 21 1029.5
BEAUFORT LAB     1700   33 47   10/ 17/ 21 1029.8
27 SE WRIGHTSVLE NOT AVBL
5 SE WRIGHTSVLE  NOT AVBL
225 S CAPE HAT   1750   64 72   30/ 19/ 23 1022.4    9/11   5/11
41 SE CHARLESTON 1750   44 67   20/ 25/ 29 1027.2   10/ 8   3/16

$$



USA.gov is the U.S. government's official web portal to all federal, state and local government web resources and services.